Weather reports worldwide

Advertisment
Filton, United Kingdom (3628): temperature & dewpoint: 10.07.2018 17:00:00 - 16.07.2018 17:00:00 (BST)Filton, United Kingdom (3628): temperature -20cm & temperature -100cm: 10.07.2018 17:00:00 - 16.07.2018 17:00:00 (BST)Filton, United Kingdom (3628): wind speed: 10.07.2018 17:00:00 - 16.07.2018 17:00:00 (BST)Filton, United Kingdom (3628): wind direction: 10.07.2018 17:00:00 - 16.07.2018 17:00:00 (BST)Filton, United Kingdom (3628): reduced air pressure: 10.07.2018 17:00:00 - 16.07.2018 17:00:00 (BST)Filton, United Kingdom (3628): visibility: 10.07.2018 17:00:00 - 16.07.2018 17:00:00 (BST)Filton, United Kingdom (3628): sunshine duration: 10.07.2018 17:00:00 - 16.07.2018 17:00:00 (BST)Filton, United Kingdom (3628): precipitation: 10.07.2018 17:00:00 - 16.07.2018 17:00:00 (BST)
Date & Time tt [°C] td [°C] tt -20cm [°C] tt -100cm [°C] ff [km/h] ff [kn] dd ppp [hPa] vv [km] sd [min] rr [mm]
16.07.2018 17:00:00 - - - - - - - - - - 0,0
16.07.2018 16:00:00 21,5 14,7 - - 29 16 W 1013,1 27 18 0,0
16.07.2018 15:00:00 24,6 11,9 - - 5 3 N 1012,7 35 36 0,0
16.07.2018 14:00:00 24,2 12,9 - - 13 7 W 1013,3 35 42 0,0
16.07.2018 13:00:00 24,6 12,6 - - 13 7 WSW 1013,6 35 18 0,0
16.07.2018 12:00:00 22,9 11,6 - - 13 7 SSW 1014,0 40 6 0,0
16.07.2018 11:00:00 22,5 14,5 - - 9 5 SW 1014,1 30 0 0,0
16.07.2018 10:00:00 21,5 14,6 19,9 16,9 4 2 SW 1014,1 30 6 0,0
16.07.2018 09:00:00 20,2 15,5 - - 5 3 W 1014,2 24 36 0,0
16.07.2018 08:00:00 19,4 16,4 - - 5 3 WSW 1014,3 21 24 0,0
16.07.2018 07:00:00 17,7 15,9 - - 4 2 SSW 1014,1 18 0 0,0
16.07.2018 06:00:00 16,3 15,0 - - 5 3 SSW 1014,4 9 0 0,0
16.07.2018 05:00:00 16,8 14,9 - - 9 5 SW 1014,6 11 0 0,0
16.07.2018 04:00:00 16,3 14,4 - - 5 3 WSW 1014,9 18 0 0,0
16.07.2018 03:00:00 15,9 13,5 - - 9 5 WSW 1015,0 29 0 0,0
16.07.2018 02:00:00 16,8 13,1 - - 8 4 WSW 1015,1 35 0 0,0
16.07.2018 01:00:00 17,1 12,6 - - 8 4 WSW 1015,4 45 - 0,0
16.07.2018 00:00:00 17,6 11,2 - - 8 4 WSW 1015,4 50 0 0,0
15.07.2018 23:00:00 17,8 11,3 - - 9 5 SW 1015,5 45 0 0,0
15.07.2018 22:00:00 20,9 11,4 - - 15 8 W 1015,2 50 0 0,0
15.07.2018 21:00:00 22,0 11,7 - - 16 9 W 1014,8 40 30 0,0
15.07.2018 20:00:00 23,4 11,4 - - 18 10 W 1014,6 40 60 0,0
15.07.2018 19:00:00 24,9 11,6 - - 18 10 W 1014,4 40 60 0,0
15.07.2018 18:00:00 25,7 11,6 - - 18 10 W 1014,8 45 60 0,0
15.07.2018 17:00:00 25,0 12,1 - - 18 10 W 1015,2 45 60 0,0
15.07.2018 16:00:00 24,8 10,8 - - 18 10 W 1015,6 45 60 0,0
15.07.2018 15:00:00 25,4 10,6 - - 21 11 W 1015,9 55 60 0,0
15.07.2018 14:00:00 25,0 11,1 - - 16 9 WSW 1016,3 50 60 0,0
15.07.2018 13:00:00 23,5 11,3 - - 13 7 W 1016,7 50 60 0,0
15.07.2018 12:00:00 23,1 12,1 - - 13 7 W 1017,2 35 60 0,0
15.07.2018 11:00:00 22,1 13,3 - - 11 6 W 1017,3 25 60 0,0
15.07.2018 10:00:00 21,2 13,2 18,9 16,7 9 5 W 1017,5 25 60 0,0
15.07.2018 09:00:00 19,3 13,3 - - 5 3 NNW 1017,8 29 60 0,0
15.07.2018 08:00:00 17,9 13,8 - - 4 2 WNW 1017,9 29 60 0,0
15.07.2018 07:00:00 15,8 14,1 - - 5 3 W 1017,9 19 60 0,0
15.07.2018 06:00:00 13,4 12,6 - - 5 3 W 1017,7 16 6 0,0
15.07.2018 05:00:00 14,0 13,3 - - 5 3 W 1017,9 12 0 0,0
15.07.2018 04:00:00 14,2 13,3 - - 4 2 W 1018,1 12 0 0,0
15.07.2018 03:00:00 14,0 12,4 - - 5 3 WSW 1018,2 16 0 0,0
15.07.2018 02:00:00 14,7 13,2 - - 5 3 W 1018,3 21 0 0,0
15.07.2018 01:00:00 15,3 14,0 - - 5 3 WSW 1018,3 27 - 0,0
15.07.2018 00:00:00 14,7 12,1 - - 9 5 SW 1018,6 35 0 0,0
14.07.2018 23:00:00 16,2 12,3 - - 11 6 WSW 1018,6 40 0 0,0
14.07.2018 22:00:00 17,9 12,5 - - 15 8 WSW 1018,7 27 0 0,0
14.07.2018 21:00:00 20,0 12,3 - - 21 11 WSW 1018,4 40 42 0,0
14.07.2018 20:00:00 22,2 12,6 - - 21 11 W 1018,3 40 60 0,0
14.07.2018 19:00:00 23,3 11,4 - - 21 11 W 1018,3 40 60 0,0
14.07.2018 18:00:00 24,9 9,3 - - 18 10 WSW 1018,5 50 60 0,0
14.07.2018 17:00:00 25,0 10,5 - - 22 12 WSW 1018,8 40 60 0,0
14.07.2018 16:00:00 24,8 9,9 - - 22 12 W 1019,2 50 60 0,0
14.07.2018 15:00:00 24,6 11,6 - - 18 10 WSW 1019,5 35 54 0,0
14.07.2018 14:00:00 23,9 13,4 - - 16 9 W 1019,9 30 54 0,0
14.07.2018 13:00:00 23,3 14,2 - - 15 8 W 1020,2 26 42 0,0
14.07.2018 12:00:00 22,6 14,8 - - 11 6 W 1020,6 23 30 0,0
14.07.2018 11:00:00 20,7 14,4 - - 8 4 SW 1020,9 21 36 0,0
14.07.2018 10:00:00 20,2 15,3 19,5 16,7 8 4 S 1021,0 17 30 0,0
14.07.2018 09:00:00 18,3 15,4 - - 5 3 WSW 1021,1 15 60 0,0
14.07.2018 08:00:00 17,3 15,6 - - 4 2 SSW 1021,1 14 54 0,0
14.07.2018 07:00:00 15,8 15,3 - - 5 3 SW 1021,1 16 0 0,0
14.07.2018 06:00:00 14,3 14,0 - - 2 1 SW 1021,1 18 0 0,0
14.07.2018 05:00:00 13,7 13,4 - - 5 3 SE 1021,1 11 0 0,0
14.07.2018 04:00:00 14,1 13,8 - - 2 1 SSE 1021,3 12 0 0,0
14.07.2018 03:00:00 14,4 13,9 - - 2 1 WSW 1021,4 17 0 0,0
14.07.2018 02:00:00 15,0 14,3 - - 4 2 WSW 1021,5 16 0 0,0
14.07.2018 01:00:00 15,0 13,8 - - 8 4 WSW 1021,7 17 - 0,0
14.07.2018 00:00:00 15,6 14,1 - - 8 4 WSW 1021,6 17 0 0,0
13.07.2018 23:00:00 16,1 14,8 - - 5 3 W 1021,6 14 0 0,0
13.07.2018 22:00:00 16,8 15,1 - - 13 7 WSW 1021,4 16 0 0,0
13.07.2018 21:00:00 18,8 16,5 - - 11 6 SW 1020,9 16 6 0,0
13.07.2018 20:00:00 19,6 16,9 - - 11 6 S 1021,0 21 54 0,0
13.07.2018 19:00:00 19,2 17,7 - - 15 8 S 1020,9 14 6 4,8
13.07.2018 18:00:00 19,2 17,4 - - 15 8 SE 1020,9 15 0 1,0
13.07.2018 17:00:00 22,6 15,0 - - 13 7 SE 1020,8 24 0 0,0
13.07.2018 16:00:00 23,6 14,1 - - 5 3 SSW 1021,0 28 0 0,0
13.07.2018 15:00:00 21,4 15,6 - - 5 3 W 1021,4 24 6 0,0
13.07.2018 14:00:00 22,8 17,2 - - 4 2 ENE 1021,5 15 12 0,2
13.07.2018 13:00:00 19,5 17,0 - - 4 2 SW 1022,1 6 0 0,6
13.07.2018 12:00:00 21,1 14,6 - - 16 9 W 1022,0 14 24 0,0
13.07.2018 11:00:00 22,0 14,0 - - 5 3 NNE 1021,9 20 48 0,0
13.07.2018 10:00:00 21,1 14,0 20,4 16,7 5 3 ESE 1022,1 18 60 0,0
13.07.2018 09:00:00 19,5 13,6 - - 4 2 ESE 1022,3 18 54 0,0
13.07.2018 08:00:00 17,3 13,3 - - 8 4 E 1022,2 20 6 0,0
13.07.2018 07:00:00 16,4 13,0 - - 8 4 E 1022,0 18 0 0,0
13.07.2018 06:00:00 16,3 13,1 - - 8 4 E 1022,0 15 0 0,0
13.07.2018 05:00:00 16,7 13,6 - - 9 5 E 1021,9 15 0 0,0
13.07.2018 04:00:00 17,0 13,9 - - 8 4 E 1021,7 18 0 0,0
13.07.2018 03:00:00 17,8 14,7 - - 5 3 SE 1021,7 20 0 0,0
13.07.2018 02:00:00 18,0 15,0 - - 5 3 S 1021,6 21 0 0,0
13.07.2018 01:00:00 17,5 14,7 - - 5 3 WSW 1021,7 21 - 0,0
13.07.2018 00:00:00 18,0 14,1 - - 5 3 WSW 1021,5 22 0 0,0
12.07.2018 23:00:00 18,5 13,8 - - 8 4 W 1021,4 26 0 0,0
12.07.2018 22:00:00 20,3 13,1 - - 8 4 W 1021,2 35 0 0,0
12.07.2018 21:00:00 21,8 13,0 - - 8 4 NW 1020,6 35 0 0,0
12.07.2018 20:00:00 22,7 12,7 - - 8 4 WNW 1020,6 35 6 0,0
12.07.2018 19:00:00 24,8 11,8 - - 11 6 NNW 1020,4 40 54 0,0
12.07.2018 18:00:00 23,6 12,6 - - 11 6 NNW 1020,4 40 0 0,0
12.07.2018 17:00:00 23,5 12,5 - - 11 6 NNW 1020,6 35 0 0,0
12.07.2018 16:00:00 23,1 13,3 - - 9 5 NNW 1020,9 30 0 0,0
12.07.2018 15:00:00 22,6 13,8 - - 9 5 NNW 1021,2 25 0 0,0
12.07.2018 14:00:00 22,9 14,5 - - 8 4 WNW 1021,5 23 6 0,0
12.07.2018 13:00:00 20,7 14,1 - - 9 5 NW 1021,9 19 0 0,0
12.07.2018 12:00:00 19,9 14,6 - - 9 5 NW 1022,2 20 0 0,0
12.07.2018 11:00:00 19,3 13,3 - - 8 4 NNE 1022,1 30 0 0,0
12.07.2018 10:00:00 17,3 13,9 20,9 16,7 8 4 NNE 1022,1 24 0 0,0
12.07.2018 09:00:00 16,2 14,0 - - 8 4 ENE 1022,1 19 0 0,2
12.07.2018 08:00:00 15,4 13,3 - - 8 4 ENE 1021,9 14 0 0,2
12.07.2018 07:00:00 16,1 12,6 - - 9 5 ENE 1021,6 30 0 0,0
12.07.2018 06:00:00 16,6 12,5 - - 11 6 ENE 1021,1 30 0 0,0
12.07.2018 05:00:00 17,4 12,3 - - 11 6 E 1020,8 35 0 0,0
12.07.2018 04:00:00 18,5 12,4 - - 11 6 E 1020,8 35 0 0,0
12.07.2018 03:00:00 19,1 12,6 - - 5 3 ESE 1020,7 35 0 0,0
12.07.2018 02:00:00 19,3 12,2 - - 9 5 E 1020,7 30 0 0,0
12.07.2018 01:00:00 20,1 11,9 - - 9 5 ENE 1020,8 30 - 0,0
12.07.2018 00:00:00 20,8 11,9 - - 9 5 NE 1020,7 30 0 0,0
11.07.2018 23:00:00 21,2 11,9 - - 11 6 NE 1020,7 35 0 0,0
11.07.2018 22:00:00 21,2 12,2 - - 8 4 N 1020,6 35 0 0,0
11.07.2018 21:00:00 22,1 11,8 - - 9 5 NNW 1020,2 30 18 0,0
11.07.2018 20:00:00 23,6 11,2 - - 11 6 NW 1020,0 35 54 0,0
11.07.2018 19:00:00 24,8 10,6 - - 13 7 NW 1019,8 35 60 0,0
11.07.2018 18:00:00 25,1 10,8 - - 13 7 WNW 1019,8 35 60 0,0
11.07.2018 17:00:00 25,2 11,4 - - 15 8 W 1020,2 35 42 0,0
11.07.2018 16:00:00 24,7 10,6 - - 9 5 NW 1020,5 40 24 0,0
11.07.2018 15:00:00 25,2 9,8 - - 11 6 NNE 1020,8 35 42 0,0
11.07.2018 14:00:00 23,7 10,1 - - 8 4 NNE 1021,3 35 30 0,0
11.07.2018 13:00:00 24,2 10,5 - - 11 6 NE 1021,7 35 54 0,0
11.07.2018 12:00:00 23,0 11,2 - - 9 5 NE 1022,0 40 60 0,0
11.07.2018 11:00:00 21,9 11,6 - - 8 4 E 1022,4 35 60 0,0
11.07.2018 10:00:00 20,6 12,1 20,0 16,5 9 5 NE 1022,6 35 60 0,0
11.07.2018 09:00:00 18,2 11,4 - - 11 6 NE 1022,9 35 60 0,0
11.07.2018 08:00:00 16,6 11,3 - - 13 7 ENE 1023,0 40 60 0,0
11.07.2018 07:00:00 15,6 11,6 - - 8 4 ENE 1022,9 35 60 0,0
11.07.2018 06:00:00 14,2 11,5 - - 8 4 ENE 1022,8 35 0 0,0
11.07.2018 05:00:00 14,2 11,3 - - 11 6 NE 1022,8 35 0 0,0
11.07.2018 04:00:00 14,7 10,9 - - 8 4 E 1022,8 40 0 0,0
11.07.2018 03:00:00 15,2 10,1 - - 8 4 E 1022,9 35 0 0,0
11.07.2018 02:00:00 16,6 9,9 - - 9 5 ENE 1022,8 45 0 0,0
11.07.2018 01:00:00 16,8 9,4 - - 4 2 E 1022,7 40 - 0,0
11.07.2018 00:00:00 17,3 9,3 - - 4 2 ESE 1022,8 40 0 0,0
10.07.2018 23:00:00 19,1 9,4 - - 9 5 E 1022,8 40 0 0,0
10.07.2018 22:00:00 20,4 10,0 - - 9 5 NE 1022,6 40 0 0,0
10.07.2018 21:00:00 21,2 10,0 - - 9 5 N 1022,3 40 18 0,0
10.07.2018 20:00:00 21,7 10,2 - - 5 3 NNW 1022,1 40 0 0,0
10.07.2018 19:00:00 22,3 8,7 - - 11 6 N 1022,1 40 0 0,0
10.07.2018 18:00:00 23,6 9,6 - - 11 6 NNW 1022,1 45 24 0,0
10.07.2018 17:00:00 23,3 9,3 - - 15 8 N 1022,6 40 18 0,0

tt = temperature
td = dewpoint
tt -20cm = temperature -20cm
tt -100cm = temperature -100cm
ff = wind speed
dd = wind direction
ppp = reduced air pressure
vv = visibility
sd = sunshine duration
rr = precipitation

Next stations